HST 1 20580U 90037B 24355.83284635 .00006788 00000-0 28145-3 0 9994 2 20580 28.4667 170.9957 0001834 291.7428 68.2970 15.21859421705458 ISS (ZARYA) 1 25544U 98067A 24356.38462161 .00004794 00000-0 89439-4 0 9992 2 25544 51.6396 107.8950 0008087 2.3558 76.4872 15.50788318487580 CXO 1 25867U 99040B 24358.25981192 .00000403 00000-0 00000-0 0 9996 2 25867 45.5383 139.2238 8674532 305.5524 0.1363 0.37810200 15274